Year,Month,Day,Hour,Minute,Value (Times are PST for temperature in C)
2017,07,04,00,00,15.10
2017,07,04,00,01,15.10
2017,07,04,00,02,15.10
2017,07,04,00,03,15.10
2017,07,04,00,04,15.10
2017,07,04,00,05,15.00
2017,07,04,00,06,15.00
2017,07,04,00,07,14.90
2017,07,04,00,08,14.90
2017,07,04,00,09,14.90
2017,07,04,00,10,14.80
2017,07,04,00,11,14.80
2017,07,04,00,12,14.80
2017,07,04,00,13,14.70
2017,07,04,00,14,14.70
2017,07,04,00,15,14.70
2017,07,04,00,16,14.70
2017,07,04,00,17,14.70
2017,07,04,00,18,14.60
2017,07,04,00,19,14.60
2017,07,04,00,20,14.60
2017,07,04,00,21,14.60
2017,07,04,00,22,14.50
2017,07,04,00,23,14.50
2017,07,04,00,24,14.50
2017,07,04,00,25,14.50
2017,07,04,00,26,14.40
2017,07,04,00,27,14.40
2017,07,04,00,28,14.40
2017,07,04,00,29,14.40
2017,07,04,00,30,14.40
2017,07,04,00,31,14.40
2017,07,04,00,32,14.40
2017,07,04,00,33,14.40
2017,07,04,00,34,14.40
2017,07,04,00,35,14.30
2017,07,04,00,36,14.30
2017,07,04,00,37,14.30
2017,07,04,00,38,14.30
2017,07,04,00,39,14.30
2017,07,04,00,40,14.20
2017,07,04,00,41,14.20
2017,07,04,00,42,14.20
2017,07,04,00,43,14.20
2017,07,04,00,44,14.20
2017,07,04,00,45,14.20
2017,07,04,00,46,14.20
2017,07,04,00,47,14.10
2017,07,04,00,48,14.10
2017,07,04,00,49,14.10
2017,07,04,00,50,14.10
2017,07,04,00,51,14.10
2017,07,04,00,52,14.10
2017,07,04,00,53,14.00
2017,07,04,00,54,14.00
2017,07,04,00,55,14.00
2017,07,04,00,56,14.00
2017,07,04,00,57,14.00
2017,07,04,00,58,14.00
2017,07,04,00,59,14.00
2017,07,04,01,00,13.90
2017,07,04,01,01,13.90
2017,07,04,01,02,13.90
2017,07,04,01,03,13.90
2017,07,04,01,04,13.90
2017,07,04,01,05,13.90
2017,07,04,01,06,13.90
2017,07,04,01,07,13.90
2017,07,04,01,08,13.90
2017,07,04,01,09,13.90
2017,07,04,01,10,13.90
2017,07,04,01,11,13.80
2017,07,04,01,12,13.80
2017,07,04,01,13,13.80
2017,07,04,01,14,13.80
2017,07,04,01,15,13.80
2017,07,04,01,16,13.80
2017,07,04,01,17,13.80
2017,07,04,01,18,13.80
2017,07,04,01,19,13.80
2017,07,04,01,20,13.80
2017,07,04,01,21,13.80
2017,07,04,01,22,13.80
2017,07,04,01,23,13.80
2017,07,04,01,24,13.80
2017,07,04,01,25,13.70
2017,07,04,01,26,13.70
2017,07,04,01,27,13.70
2017,07,04,01,28,13.70
2017,07,04,01,29,13.70
2017,07,04,01,30,13.70
2017,07,04,01,31,13.60
2017,07,04,01,32,13.60
2017,07,04,01,33,13.60
2017,07,04,01,34,13.60
2017,07,04,01,35,13.60
2017,07,04,01,36,13.50
2017,07,04,01,37,13.50
2017,07,04,01,38,13.50
2017,07,04,01,39,13.50
2017,07,04,01,40,13.50
2017,07,04,01,41,13.50
2017,07,04,01,42,13.50
2017,07,04,01,43,13.50
2017,07,04,01,44,13.40
2017,07,04,01,45,13.40
2017,07,04,01,46,13.40
2017,07,04,01,47,13.40
2017,07,04,01,48,13.40
2017,07,04,01,49,13.40
2017,07,04,01,50,13.40
2017,07,04,01,51,13.40
2017,07,04,01,52,13.40
2017,07,04,01,53,13.40
2017,07,04,01,54,13.30
2017,07,04,01,55,13.30
2017,07,04,01,56,13.30
2017,07,04,01,57,13.30
2017,07,04,01,58,13.30
2017,07,04,01,59,13.20
2017,07,04,02,00,13.20
2017,07,04,02,01,13.20
2017,07,04,02,02,13.20
2017,07,04,02,03,13.20
2017,07,04,02,04,13.20
2017,07,04,02,05,13.20
2017,07,04,02,06,13.20
2017,07,04,02,07,13.20
2017,07,04,02,08,13.10
2017,07,04,02,09,13.10
2017,07,04,02,10,13.10
2017,07,04,02,11,13.10
2017,07,04,02,12,13.10
2017,07,04,02,13,13.10
2017,07,04,02,14,13.00
2017,07,04,02,15,13.00
2017,07,04,02,16,13.00
2017,07,04,02,17,13.00
2017,07,04,02,18,13.00
2017,07,04,02,19,13.00
2017,07,04,02,20,13.00
2017,07,04,02,21,13.00
2017,07,04,02,22,13.00
2017,07,04,02,23,13.00
2017,07,04,02,24,12.90
2017,07,04,02,25,12.90
2017,07,04,02,26,12.90
2017,07,04,02,27,12.90
2017,07,04,02,28,12.90
2017,07,04,02,29,12.90
2017,07,04,02,30,12.90
2017,07,04,02,31,12.90
2017,07,04,02,32,12.90
2017,07,04,02,33,12.90
2017,07,04,02,34,12.80
2017,07,04,02,35,12.80
2017,07,04,02,36,12.80
2017,07,04,02,37,12.80
2017,07,04,02,38,12.80
2017,07,04,02,39,12.80
2017,07,04,02,40,12.80
2017,07,04,02,41,12.70
2017,07,04,02,42,12.70
2017,07,04,02,43,12.70
2017,07,04,02,44,12.70
2017,07,04,02,45,12.70
2017,07,04,02,46,12.60
2017,07,04,02,47,12.60
2017,07,04,02,48,12.60
2017,07,04,02,49,12.60
2017,07,04,02,50,12.60
2017,07,04,02,51,12.60
2017,07,04,02,52,12.60
2017,07,04,02,53,12.60
2017,07,04,02,54,12.60
2017,07,04,02,55,12.60
2017,07,04,02,56,12.60
2017,07,04,02,57,12.60
2017,07,04,02,58,12.60
2017,07,04,02,59,12.70
2017,07,04,03,00,12.60
2017,07,04,03,01,12.60
2017,07,04,03,02,12.60
2017,07,04,03,03,12.60
2017,07,04,03,04,12.60
2017,07,04,03,05,12.60
2017,07,04,03,06,12.60
2017,07,04,03,07,12.60
2017,07,04,03,08,12.60
2017,07,04,03,09,12.60
2017,07,04,03,10,12.70
2017,07,04,03,11,12.60
2017,07,04,03,12,12.70
2017,07,04,03,13,12.60
2017,07,04,03,14,12.60
2017,07,04,03,15,12.60
2017,07,04,03,16,12.60
2017,07,04,03,17,12.60
2017,07,04,03,18,12.60
2017,07,04,03,19,12.60
2017,07,04,03,20,12.60
2017,07,04,03,21,12.60
2017,07,04,03,22,12.60
2017,07,04,03,23,12.50
2017,07,04,03,24,12.50
2017,07,04,03,25,12.50
2017,07,04,03,26,12.50
2017,07,04,03,27,12.40
2017,07,04,03,28,12.40
2017,07,04,03,29,12.40
2017,07,04,03,30,12.40
2017,07,04,03,31,12.40
2017,07,04,03,32,12.40
2017,07,04,03,33,12.40
2017,07,04,03,34,12.40
2017,07,04,03,35,12.40
2017,07,04,03,36,12.30
2017,07,04,03,37,12.30
2017,07,04,03,38,12.30
2017,07,04,03,39,12.30
2017,07,04,03,40,12.30
2017,07,04,03,41,12.30
2017,07,04,03,42,12.30
2017,07,04,03,43,12.30
2017,07,04,03,44,12.20
2017,07,04,03,45,12.20
2017,07,04,03,46,12.20
2017,07,04,03,47,12.20
2017,07,04,03,48,12.20
2017,07,04,03,49,12.20
2017,07,04,03,50,12.10
2017,07,04,03,51,12.10
2017,07,04,03,52,12.10
2017,07,04,03,53,12.10
2017,07,04,03,54,12.10
2017,07,04,03,55,12.10
2017,07,04,03,56,12.10
2017,07,04,03,57,12.00
2017,07,04,03,58,12.00
2017,07,04,03,59,12.00
2017,07,04,04,00,12.00
2017,07,04,04,01,12.00
2017,07,04,04,02,12.00
2017,07,04,04,03,11.90
2017,07,04,04,04,11.90
2017,07,04,04,05,11.90
2017,07,04,04,06,11.90
2017,07,04,04,07,11.90
2017,07,04,04,08,11.90
2017,07,04,04,09,11.90
2017,07,04,04,10,11.90
2017,07,04,04,11,11.90
2017,07,04,04,12,11.90
2017,07,04,04,13,11.90
2017,07,04,04,14,11.90
2017,07,04,04,15,11.80
2017,07,04,04,16,11.80
2017,07,04,04,17,11.80
2017,07,04,04,18,11.80
2017,07,04,04,19,11.80
2017,07,04,04,20,11.80
2017,07,04,04,21,11.80
2017,07,04,04,22,11.80
2017,07,04,04,23,11.80
2017,07,04,04,24,11.80
2017,07,04,04,25,11.80
2017,07,04,04,26,11.80
2017,07,04,04,27,11.80
2017,07,04,04,28,11.80
2017,07,04,04,29,11.80
2017,07,04,04,30,11.80
2017,07,04,04,31,11.80
2017,07,04,04,32,11.70
2017,07,04,04,33,11.70
2017,07,04,04,34,11.70
2017,07,04,04,35,11.70
2017,07,04,04,36,11.70
2017,07,04,04,37,11.70
2017,07,04,04,38,11.70
2017,07,04,04,39,11.70
2017,07,04,04,40,11.70
2017,07,04,04,41,11.70
2017,07,04,04,42,11.60
2017,07,04,04,43,11.60
2017,07,04,04,44,11.60
2017,07,04,04,45,11.60
2017,07,04,04,46,11.60
2017,07,04,04,47,11.50
2017,07,04,04,48,11.50
2017,07,04,04,49,11.50
2017,07,04,04,50,11.50
2017,07,04,04,51,11.50
2017,07,04,04,52,11.40
2017,07,04,04,53,11.40
2017,07,04,04,54,11.40
2017,07,04,04,55,11.30
2017,07,04,04,56,11.40
2017,07,04,04,57,11.40
2017,07,04,04,58,11.40
2017,07,04,04,59,11.50
2017,07,04,05,00,11.50
2017,07,04,05,01,11.50
2017,07,04,05,02,11.60
2017,07,04,05,03,11.60
2017,07,04,05,04,11.60
2017,07,04,05,05,11.60
2017,07,04,05,06,11.60
2017,07,04,05,07,11.60
2017,07,04,05,08,11.60
2017,07,04,05,09,11.60
2017,07,04,05,10,11.60
2017,07,04,05,11,11.60
2017,07,04,05,12,11.60
2017,07,04,05,13,11.60
2017,07,04,05,14,11.50
2017,07,04,05,15,11.40
2017,07,04,05,16,11.40
2017,07,04,05,17,11.30
2017,07,04,05,18,11.30
2017,07,04,05,19,11.30
2017,07,04,05,20,11.20
2017,07,04,05,21,11.20
2017,07,04,05,22,11.10
2017,07,04,05,23,11.10
2017,07,04,05,24,11.00
2017,07,04,05,25,11.00
2017,07,04,05,26,11.00
2017,07,04,05,27,10.90
2017,07,04,05,28,10.90
2017,07,04,05,29,10.90
2017,07,04,05,30,10.90
2017,07,04,05,31,11.00
2017,07,04,05,32,11.00
2017,07,04,05,33,11.10
2017,07,04,05,34,11.10
2017,07,04,05,35,11.10
2017,07,04,05,36,11.10
2017,07,04,05,37,11.10
2017,07,04,05,38,11.20
2017,07,04,05,39,11.20
2017,07,04,05,40,11.20
2017,07,04,05,41,11.20
2017,07,04,05,42,11.20
2017,07,04,05,43,11.20
2017,07,04,05,44,11.20
2017,07,04,05,45,11.30
2017,07,04,05,46,11.30
2017,07,04,05,47,11.30
2017,07,04,05,48,11.30
2017,07,04,05,49,11.30
2017,07,04,05,50,11.30
2017,07,04,05,51,11.30
2017,07,04,05,52,11.40
2017,07,04,05,53,11.40
2017,07,04,05,54,11.40
2017,07,04,05,55,11.50
2017,07,04,05,56,11.50
2017,07,04,05,57,11.60
2017,07,04,05,58,11.60
2017,07,04,05,59,11.60
2017,07,04,06,00,11.60
2017,07,04,06,01,11.60
2017,07,04,06,02,11.60
2017,07,04,06,03,11.60
2017,07,04,06,04,11.60
2017,07,04,06,05,11.70
2017,07,04,06,06,11.70
2017,07,04,06,07,11.70
2017,07,04,06,08,11.70
2017,07,04,06,09,11.70
2017,07,04,06,10,11.70
2017,07,04,06,11,11.70
2017,07,04,06,12,11.80
2017,07,04,06,13,11.80
2017,07,04,06,14,11.80
2017,07,04,06,15,11.80
2017,07,04,06,16,11.80
2017,07,04,06,17,11.80
2017,07,04,06,18,11.90
2017,07,04,06,19,11.90
2017,07,04,06,20,11.90
2017,07,04,06,21,11.90
2017,07,04,06,22,11.90
2017,07,04,06,23,12.00
2017,07,04,06,24,11.90
2017,07,04,06,25,12.00
2017,07,04,06,26,12.00
2017,07,04,06,27,12.00
2017,07,04,06,28,12.00
2017,07,04,06,29,12.10
2017,07,04,06,30,12.10
2017,07,04,06,31,12.10
2017,07,04,06,32,12.10
2017,07,04,06,33,12.10
2017,07,04,06,34,12.10
2017,07,04,06,35,12.10
2017,07,04,06,36,12.10
2017,07,04,06,37,12.10
2017,07,04,06,38,12.10
2017,07,04,06,39,12.10
2017,07,04,06,40,12.20
2017,07,04,06,41,12.20
2017,07,04,06,42,12.20
2017,07,04,06,43,12.20
2017,07,04,06,44,12.20
2017,07,04,06,45,12.20
2017,07,04,06,46,12.30
2017,07,04,06,47,12.30
2017,07,04,06,48,12.30
2017,07,04,06,49,12.30
2017,07,04,06,50,12.30
2017,07,04,06,51,12.30
2017,07,04,06,52,12.40
2017,07,04,06,53,12.40
2017,07,04,06,54,12.40
2017,07,04,06,55,12.40
2017,07,04,06,56,12.40
2017,07,04,06,57,12.40
2017,07,04,06,58,12.50
2017,07,04,06,59,12.50
2017,07,04,07,00,12.50
2017,07,04,07,01,12.60
2017,07,04,07,02,12.60
2017,07,04,07,03,12.60
2017,07,04,07,04,12.60
2017,07,04,07,05,12.60
2017,07,04,07,06,12.70
2017,07,04,07,07,12.70
2017,07,04,07,08,12.70
2017,07,04,07,09,12.80
2017,07,04,07,10,12.80
2017,07,04,07,11,12.80
2017,07,04,07,12,12.80
2017,07,04,07,13,12.80
2017,07,04,07,14,12.80
2017,07,04,07,15,12.80
2017,07,04,07,16,12.80
2017,07,04,07,17,12.80
2017,07,04,07,18,12.90
2017,07,04,07,19,12.90
2017,07,04,07,20,12.90
2017,07,04,07,21,12.90
2017,07,04,07,22,13.00
2017,07,04,07,23,13.00
2017,07,04,07,24,13.10
2017,07,04,07,25,13.10
2017,07,04,07,26,13.10
2017,07,04,07,27,13.10
2017,07,04,07,28,13.20
2017,07,04,07,29,13.20
2017,07,04,07,30,13.20
2017,07,04,07,31,13.20
2017,07,04,07,32,13.30
2017,07,04,07,33,13.30
2017,07,04,07,34,13.30
2017,07,04,07,35,13.30
2017,07,04,07,36,13.40
2017,07,04,07,37,13.40
2017,07,04,07,38,13.40
2017,07,04,07,39,13.40
2017,07,04,07,40,13.40
2017,07,04,07,41,13.40
2017,07,04,07,42,13.40
2017,07,04,07,43,13.40
2017,07,04,07,44,13.40
2017,07,04,07,45,13.40
2017,07,04,07,46,13.50
2017,07,04,07,47,13.50
2017,07,04,07,48,13.60
2017,07,04,07,49,13.60
2017,07,04,07,50,13.60
2017,07,04,07,51,13.60
2017,07,04,07,52,13.60
2017,07,04,07,53,13.60
2017,07,04,07,54,13.60
2017,07,04,07,55,13.60
2017,07,04,07,56,13.70
2017,07,04,07,57,13.80
2017,07,04,07,58,13.80
2017,07,04,07,59,13.80
2017,07,04,08,00,13.80
2017,07,04,08,01,13.80
2017,07,04,08,02,13.80
2017,07,04,08,03,13.80
2017,07,04,08,04,13.80
2017,07,04,08,05,13.80
2017,07,04,08,06,13.80
2017,07,04,08,07,13.80
2017,07,04,08,08,13.90
2017,07,04,08,09,13.90
2017,07,04,08,10,13.90
2017,07,04,08,11,13.90
2017,07,04,08,12,13.90
2017,07,04,08,13,14.00
2017,07,04,08,14,14.00
2017,07,04,08,15,14.10
2017,07,04,08,16,14.10
2017,07,04,08,17,14.10
2017,07,04,08,18,14.20
2017,07,04,08,19,14.20
2017,07,04,08,20,14.20
2017,07,04,08,21,14.30
2017,07,04,08,22,14.30
2017,07,04,08,23,14.30
2017,07,04,08,24,14.40
2017,07,04,08,25,14.40
2017,07,04,08,26,14.40
2017,07,04,08,27,14.40
2017,07,04,08,28,14.50
2017,07,04,08,29,14.60
2017,07,04,08,30,14.60
2017,07,04,08,31,14.60
2017,07,04,08,32,14.70
2017,07,04,08,33,14.70
2017,07,04,08,34,14.70
2017,07,04,08,35,14.70
2017,07,04,08,36,14.80
2017,07,04,08,37,14.90
2017,07,04,08,38,14.90
2017,07,04,08,39,14.90
2017,07,04,08,40,14.90
2017,07,04,08,41,14.90
2017,07,04,08,42,15.00
2017,07,04,08,43,15.00
2017,07,04,08,44,15.10
2017,07,04,08,45,15.10
2017,07,04,08,46,15.20
2017,07,04,08,47,15.20
2017,07,04,08,48,15.20
2017,07,04,08,49,15.10
2017,07,04,08,50,15.10
2017,07,04,08,51,15.10
2017,07,04,08,52,15.10
2017,07,04,08,53,15.10
2017,07,04,08,54,15.10
2017,07,04,08,55,15.10
2017,07,04,08,56,15.10
2017,07,04,08,57,15.20
2017,07,04,08,58,15.20
2017,07,04,08,59,15.20
2017,07,04,09,00,15.20
2017,07,04,09,01,15.20
2017,07,04,09,02,15.20
2017,07,04,09,03,15.30
2017,07,04,09,04,15.30
2017,07,04,09,05,15.30
2017,07,04,09,06,15.30
2017,07,04,09,07,15.30
2017,07,04,09,08,15.40
2017,07,04,09,09,15.50
2017,07,04,09,10,15.50
2017,07,04,09,11,15.50
2017,07,04,09,12,15.50
2017,07,04,09,13,15.50
2017,07,04,09,14,15.60
2017,07,04,09,15,15.70
2017,07,04,09,16,15.70
2017,07,04,09,17,15.70
2017,07,04,09,18,15.70
2017,07,04,09,19,15.60
2017,07,04,09,20,15.60
2017,07,04,09,21,15.60
2017,07,04,09,22,15.60
2017,07,04,09,23,15.70
2017,07,04,09,24,15.70
2017,07,04,09,25,15.70
2017,07,04,09,26,15.70
2017,07,04,09,27,15.70
2017,07,04,09,28,15.70
2017,07,04,09,29,15.70
2017,07,04,09,30,15.70
2017,07,04,09,31,15.80
2017,07,04,09,32,15.80
2017,07,04,09,33,15.80
2017,07,04,09,34,15.80
2017,07,04,09,35,15.90
2017,07,04,09,36,15.90
2017,07,04,09,37,15.90
2017,07,04,09,38,16.00
2017,07,04,09,39,16.00
2017,07,04,09,40,16.00
2017,07,04,09,41,16.00
2017,07,04,09,42,16.00
2017,07,04,09,43,16.00
2017,07,04,09,44,16.10
2017,07,04,09,45,16.20
2017,07,04,09,46,16.20
2017,07,04,09,47,16.30
2017,07,04,09,48,16.30
2017,07,04,09,49,16.40
2017,07,04,09,50,16.40
2017,07,04,09,51,16.50
2017,07,04,09,52,16.50
2017,07,04,09,53,16.50
2017,07,04,09,54,16.60
2017,07,04,09,55,16.60
2017,07,04,09,56,16.60
2017,07,04,09,57,16.60
2017,07,04,09,58,16.60
2017,07,04,09,59,16.60
2017,07,04,10,00,16.60
2017,07,04,10,01,16.60
2017,07,04,10,02,16.60
2017,07,04,10,03,16.60
2017,07,04,10,04,16.60
2017,07,04,10,05,16.50
2017,07,04,10,06,16.50
2017,07,04,10,07,16.50
2017,07,04,10,08,16.50
2017,07,04,10,09,16.50
2017,07,04,10,10,16.60
2017,07,04,10,11,16.60
2017,07,04,10,12,16.60
2017,07,04,10,13,16.70
2017,07,04,10,14,16.80
2017,07,04,10,15,16.80
2017,07,04,10,16,16.80
2017,07,04,10,17,16.90
2017,07,04,10,18,16.90
2017,07,04,10,19,16.90
2017,07,04,10,20,16.90
2017,07,04,10,21,17.00
2017,07,04,10,22,17.10
2017,07,04,10,23,17.20
2017,07,04,10,24,17.20
2017,07,04,10,25,17.20
2017,07,04,10,26,17.30
2017,07,04,10,27,17.30
2017,07,04,10,28,17.40
2017,07,04,10,29,17.40
2017,07,04,10,30,17.40
2017,07,04,10,31,17.50
2017,07,04,10,32,17.70
2017,07,04,10,33,17.70
2017,07,04,10,34,17.80
2017,07,04,10,35,17.90
2017,07,04,10,36,17.90
2017,07,04,10,37,17.90
2017,07,04,10,38,18.00
2017,07,04,10,39,18.00
2017,07,04,10,40,18.00
2017,07,04,10,41,18.10
2017,07,04,10,42,18.10
2017,07,04,10,43,18.20
2017,07,04,10,44,18.20
2017,07,04,10,45,18.20
2017,07,04,10,46,18.20
2017,07,04,10,47,18.20
2017,07,04,10,48,18.20
2017,07,04,10,49,18.20
2017,07,04,10,50,18.10
2017,07,04,10,51,18.00
2017,07,04,10,52,18.00
2017,07,04,10,53,18.00
2017,07,04,10,54,18.20
2017,07,04,10,55,18.20
2017,07,04,10,56,18.20
2017,07,04,10,57,18.20
2017,07,04,10,58,18.20
2017,07,04,10,59,18.20
2017,07,04,11,00,18.20
2017,07,04,11,01,18.20
2017,07,04,11,02,18.10
2017,07,04,11,03,18.20
2017,07,04,11,04,18.20
2017,07,04,11,05,18.20
2017,07,04,11,06,18.20
2017,07,04,11,07,18.30
2017,07,04,11,08,18.40
2017,07,04,11,09,18.40
2017,07,04,11,10,18.40
2017,07,04,11,11,18.40
2017,07,04,11,12,18.40
2017,07,04,11,13,18.40
2017,07,04,11,14,18.30
2017,07,04,11,15,18.30
2017,07,04,11,16,18.20
2017,07,04,11,17,18.20
2017,07,04,11,18,18.30
2017,07,04,11,19,18.30
2017,07,04,11,20,18.40
2017,07,04,11,21,18.50
2017,07,04,11,22,18.60
2017,07,04,11,23,18.70
2017,07,04,11,24,18.80
2017,07,04,11,25,18.80
2017,07,04,11,26,18.80
2017,07,04,11,27,18.90
2017,07,04,11,28,18.90
2017,07,04,11,29,18.80
2017,07,04,11,30,18.80
2017,07,04,11,31,18.70
2017,07,04,11,32,18.70
2017,07,04,11,33,18.70
2017,07,04,11,34,18.70
2017,07,04,11,35,18.70
2017,07,04,11,36,18.70
2017,07,04,11,37,18.80
2017,07,04,11,38,18.80
2017,07,04,11,39,18.90
2017,07,04,11,40,19.00
2017,07,04,11,41,19.10
2017,07,04,11,42,19.10
2017,07,04,11,43,19.10
2017,07,04,11,44,19.10
2017,07,04,11,45,19.10
2017,07,04,11,46,19.20
2017,07,04,11,47,19.30
2017,07,04,11,48,19.30
2017,07,04,11,49,19.40
2017,07,04,11,50,19.40
2017,07,04,11,51,19.40
2017,07,04,11,52,19.40
2017,07,04,11,53,19.40
2017,07,04,11,54,19.50
2017,07,04,11,55,19.50
2017,07,04,11,56,19.60
2017,07,04,11,57,19.70
2017,07,04,11,58,19.80
2017,07,04,11,59,19.80
2017,07,04,12,00,19.80
2017,07,04,12,01,19.80
2017,07,04,12,02,19.80
2017,07,04,12,03,19.70
2017,07,04,12,04,19.70
2017,07,04,12,05,19.70
2017,07,04,12,06,19.70
2017,07,04,12,07,19.80
2017,07,04,12,08,19.90
2017,07,04,12,09,20.00
2017,07,04,12,10,20.00
2017,07,04,12,11,20.10
2017,07,04,12,12,20.20
2017,07,04,12,13,20.20
2017,07,04,12,14,20.20
2017,07,04,12,15,20.10
2017,07,04,12,16,20.10
2017,07,04,12,17,20.10
2017,07,04,12,18,20.30
2017,07,04,12,19,20.30
2017,07,04,12,20,20.40
2017,07,04,12,21,20.50
2017,07,04,12,22,20.60
2017,07,04,12,23,20.60
2017,07,04,12,24,20.80
2017,07,04,12,25,20.80
2017,07,04,12,26,20.70
2017,07,04,12,27,20.70
2017,07,04,12,28,20.60
2017,07,04,12,29,20.60
2017,07,04,12,30,20.60
2017,07,04,12,31,20.70
2017,07,04,12,32,20.70
2017,07,04,12,33,20.80
2017,07,04,12,34,20.80
2017,07,04,12,35,20.80
2017,07,04,12,36,20.90
2017,07,04,12,37,20.90
2017,07,04,12,38,20.80
2017,07,04,12,39,20.90
2017,07,04,12,40,21.00
2017,07,04,12,41,21.00
2017,07,04,12,42,21.10
2017,07,04,12,43,21.30
2017,07,04,12,44,21.40
2017,07,04,12,45,21.50
2017,07,04,12,46,21.50
2017,07,04,12,47,21.50
2017,07,04,12,48,21.40
2017,07,04,12,49,21.40
2017,07,04,12,50,21.30
2017,07,04,12,51,21.30
2017,07,04,12,52,21.40
2017,07,04,12,53,21.40
2017,07,04,12,54,21.40
2017,07,04,12,55,21.40
2017,07,04,12,56,21.40
2017,07,04,12,57,21.40
2017,07,04,12,58,21.40
2017,07,04,12,59,21.40
2017,07,04,13,00,21.40
2017,07,04,13,01,21.40
2017,07,04,13,02,21.40
2017,07,04,14,27,23.80
2017,07,04,14,28,23.80
2017,07,04,14,29,23.80
2017,07,04,14,30,23.80
2017,07,04,14,31,23.80
2017,07,04,14,32,23.80
2017,07,04,14,33,23.80
2017,07,04,14,34,23.80
2017,07,04,14,35,23.80
2017,07,04,14,36,23.90
2017,07,04,14,37,23.90
2017,07,04,14,38,23.80
2017,07,04,14,39,23.80
2017,07,04,14,40,23.70
2017,07,04,14,41,23.70
2017,07,04,14,42,23.70
2017,07,04,14,43,23.70
2017,07,04,14,44,23.60
2017,07,04,14,45,23.50
2017,07,04,14,46,23.40
2017,07,04,14,47,23.30
2017,07,04,14,48,23.30
2017,07,04,14,49,23.30
2017,07,04,14,50,23.30
2017,07,04,14,51,23.30
2017,07,04,14,52,23.30
2017,07,04,14,53,23.30
2017,07,04,14,54,23.20
2017,07,04,14,55,23.20
2017,07,04,14,56,23.20
2017,07,04,14,57,23.40
2017,07,04,14,58,23.50
2017,07,04,14,59,23.60
2017,07,04,15,00,23.70
2017,07,04,15,01,23.80
2017,07,04,15,02,23.90
2017,07,04,15,03,24.10
2017,07,04,15,04,24.10
2017,07,04,15,05,24.20
2017,07,04,15,06,24.20
2017,07,04,15,07,24.10
2017,07,04,15,08,24.10
2017,07,04,15,09,24.10
2017,07,04,15,10,24.10
2017,07,04,15,11,24.10
2017,07,04,15,12,24.20
2017,07,04,15,13,24.30
2017,07,04,15,14,24.30
2017,07,04,15,15,24.30
2017,07,04,15,16,24.20
2017,07,04,15,17,24.20
2017,07,04,15,18,24.00
2017,07,04,15,19,24.00
2017,07,04,15,20,24.00
2017,07,04,15,21,23.90
2017,07,04,15,22,23.90
2017,07,04,15,23,23.90
2017,07,04,15,24,23.90
2017,07,04,15,25,23.90
2017,07,04,15,26,23.90
2017,07,04,15,27,23.90
2017,07,04,15,28,23.70
2017,07,04,15,29,23.70
2017,07,04,15,30,23.70
2017,07,04,15,31,23.70
2017,07,04,15,32,23.80
2017,07,04,15,33,24.00
2017,07,04,15,34,24.10
2017,07,04,15,35,24.10
2017,07,04,15,36,24.10
2017,07,04,15,37,24.10
2017,07,04,15,38,24.20
2017,07,04,15,39,24.20
2017,07,04,15,40,24.20
2017,07,04,15,41,24.10
2017,07,04,15,42,24.10
2017,07,04,15,43,24.10
2017,07,04,15,44,24.20
2017,07,04,15,45,24.30
2017,07,04,15,46,24.20
2017,07,04,15,47,24.20
2017,07,04,15,48,24.20
2017,07,04,15,49,24.20
2017,07,04,15,50,24.10
2017,07,04,15,51,24.00
2017,07,04,15,52,24.00
2017,07,04,15,53,23.90
2017,07,04,15,54,23.90
2017,07,04,15,55,23.90
2017,07,04,15,56,24.00
2017,07,04,15,57,24.10
2017,07,04,15,58,24.20
2017,07,04,15,59,24.40
2017,07,04,16,00,24.50
2017,07,04,16,01,24.60
2017,07,04,16,02,24.70
2017,07,04,16,03,24.70
2017,07,04,16,04,24.70
2017,07,04,16,05,24.80
2017,07,04,16,06,24.80
2017,07,04,16,07,24.80
2017,07,04,16,08,24.80
2017,07,04,16,09,24.80
2017,07,04,16,10,24.80
2017,07,04,16,11,24.80
2017,07,04,16,12,24.80
2017,07,04,16,13,24.80
2017,07,04,16,14,24.80
2017,07,04,16,15,24.80
2017,07,04,16,16,24.80
2017,07,04,16,17,24.80
2017,07,04,16,18,24.80
2017,07,04,16,19,24.80
2017,07,04,16,20,24.80
2017,07,04,16,21,24.90
2017,07,04,16,22,25.10
2017,07,04,16,23,25.00
2017,07,04,16,24,24.90
2017,07,04,16,25,24.90
2017,07,04,16,26,24.90
2017,07,04,16,27,24.90
2017,07,04,16,28,24.80
2017,07,04,16,29,24.90
2017,07,04,16,30,24.90
2017,07,04,16,31,24.90
2017,07,04,16,32,24.90
2017,07,04,16,33,25.00
2017,07,04,16,34,25.00
2017,07,04,16,35,25.10
2017,07,04,16,36,25.20
2017,07,04,16,37,25.30
2017,07,04,16,38,25.40
2017,07,04,16,39,25.50
2017,07,04,16,40,25.50
2017,07,04,16,41,25.40
2017,07,04,16,42,25.40
2017,07,04,16,43,25.40
2017,07,04,16,44,25.40
2017,07,04,16,45,25.40
2017,07,04,16,46,25.60
2017,07,04,16,47,25.60
2017,07,04,16,48,25.60
2017,07,04,16,49,25.60
2017,07,04,16,50,25.50
2017,07,04,16,51,25.50
2017,07,04,16,52,25.50
2017,07,04,16,53,25.50
2017,07,04,16,54,25.30
2017,07,04,16,55,25.20
2017,07,04,16,56,25.20
2017,07,04,16,57,25.10
2017,07,04,16,58,25.10
2017,07,04,16,59,25.10
2017,07,04,17,00,25.00
2017,07,04,17,01,25.00
2017,07,04,17,02,24.90
2017,07,04,17,03,24.90
2017,07,04,17,04,24.90
2017,07,04,17,05,24.90
2017,07,04,17,06,24.90
2017,07,04,17,07,24.90
2017,07,04,17,08,25.00
2017,07,04,17,09,25.00
2017,07,04,17,10,25.00
2017,07,04,17,11,25.00
2017,07,04,17,12,25.00
2017,07,04,17,13,25.00
2017,07,04,17,14,25.00
2017,07,04,17,15,25.00
2017,07,04,17,16,25.00
2017,07,04,17,17,25.00
2017,07,04,17,18,25.00
2017,07,04,18,42,25.50
2017,07,04,18,43,25.50
2017,07,04,18,44,25.40
2017,07,04,18,45,25.40
2017,07,04,18,46,25.40
2017,07,04,18,47,25.40
2017,07,04,18,48,25.40
2017,07,04,18,49,25.40
2017,07,04,18,50,25.50
2017,07,04,18,51,25.50
2017,07,04,18,52,25.50
2017,07,04,18,53,25.60
2017,07,04,18,54,25.60
2017,07,04,18,55,25.60
2017,07,04,18,56,25.50
2017,07,04,18,57,25.40
2017,07,04,18,58,25.40
2017,07,04,18,59,25.40
2017,07,04,19,00,25.40
2017,07,04,19,01,25.40
2017,07,04,19,02,25.40
2017,07,04,19,03,25.40
2017,07,04,19,04,25.40
2017,07,04,19,05,25.40
2017,07,04,19,06,25.30
2017,07,04,19,07,25.30
2017,07,04,19,08,25.20
2017,07,04,19,09,25.20
2017,07,04,19,10,25.10
2017,07,04,19,11,25.10
2017,07,04,19,12,25.00
2017,07,04,19,13,24.90
2017,07,04,19,14,24.90
2017,07,04,19,15,24.90
2017,07,04,19,16,24.90
2017,07,04,19,17,24.80
2017,07,04,19,18,24.80
2017,07,04,19,19,24.70
2017,07,04,19,20,24.70
2017,07,04,19,21,24.60
2017,07,04,19,22,24.60
2017,07,04,19,23,24.60
2017,07,04,19,24,24.50
2017,07,04,19,25,24.40
2017,07,04,19,26,24.30
2017,07,04,19,27,24.30
2017,07,04,19,28,24.30
2017,07,04,19,29,24.20
2017,07,04,19,30,24.20
2017,07,04,19,31,24.10
2017,07,04,19,32,24.10
2017,07,04,19,33,24.00
2017,07,04,19,34,23.90
2017,07,04,19,35,23.90
2017,07,04,19,36,23.80
2017,07,04,19,37,23.80
2017,07,04,19,38,23.80
2017,07,04,19,39,23.80
2017,07,04,19,40,23.70
2017,07,04,19,41,23.70
2017,07,04,19,42,23.70
2017,07,04,19,43,23.60
2017,07,04,19,44,23.60
2017,07,04,19,45,23.50
2017,07,04,19,46,23.40
2017,07,04,19,47,23.40
2017,07,04,19,48,23.30
2017,07,04,19,49,23.20
2017,07,04,19,50,23.10
2017,07,04,19,51,23.10
2017,07,04,19,52,23.10
2017,07,04,19,53,23.00
2017,07,04,19,54,23.00
2017,07,04,19,55,22.90
2017,07,04,19,56,22.90
2017,07,04,19,57,22.90
2017,07,04,19,58,22.80
2017,07,04,19,59,22.80
2017,07,04,20,00,22.80
2017,07,04,20,01,22.70
2017,07,04,20,02,22.70
2017,07,04,20,03,22.60
2017,07,04,20,04,22.60
2017,07,04,20,05,22.50
2017,07,04,20,06,22.40